Погода в Лбище

Россия / Самарская область     53°09′28″N   49°33′55″E
темп.,
°C
ветер,
м/с
пор.,
м/с
влажн.,
%
обл.,
%
осадки,
мм/ч
давл.,
гПа
погр.,
м
13 июня, вс
вс1301:00+15юв229272 0.6 101219
04:00+15юв22925 0.6 101316
07:00+17ююв35870 0.0 1013179
10:00+23ююв56695 0.0 1013614
13:00+24ююз476821 3.7 10131558
16:00+23ююв237668 4.8 101338
19:00+17зсз61092100 3.3 1015225
22:00+17вюв118424 5.3 101412
14 июня, пн
пн1401:00+16юв118516 0.0 101511
04:00+15вюв118898 0.0 101511
07:00+19вюв2283100 0.0 101697
10:00+23всв116885 0.1 1016455
13:00+27вюв3454100 0.0 10161241
16:00+27в345782 0.1 10151349
19:00+24всв247690 0.4 1014125
22:00+20ссв348092 0.4 101454
15 июня, вт
вт1501:00+19св3584100 0.1 101389
04:00+18ююв389088 0.3 1014203
07:00+18ю369072 0.1 1015198
10:00+22юв2578100 0.1 1014309
13:00+24ююв4669100 0.0 1014609
16:00+22вюв4676100 0.0 1013314
19:00+21вюв377394 0.0 1012155
22:00+20в3870100 0.0 1011145
16 июня, ср
ср1601:00+21всв41064100 0.0 1010188
04:00+21в51553100 0.0 1009359
07:00+20вюв5126777 0.0 1008313
10:00+23юв575697 0.0 1007547
13:00+26ю465657 0.0 1007840
16:00+27юз56575 0.0 10071123
19:00+25юз48730 0.0 1007338
22:00+19зюз31090100 0.2 1008205
17 июня, чт
чт1701:00+17з279619 0.1 1008142
04:00+17сз51097100 0.2 1010549
07:00+16ссз71288100 0.1 1012620
10:00+18ссз9126999 0.1 1014816
13:00+19ссз1012520 0.0 10151332
16:00+20ссз711530 0.0 10171797
19:00+19с711625 0.0 10181146
22:00+14с34744 0.0 102054